Location: Unspecified
(64.9000°N, 0.0000°E)
Time: 04:39:13
(UTC+00:00)

A-11 Canister half - Pass Details

Date: 17 June 2019
Orbit: 1526 x 1683 km, 47.3° (Epoch: 21 August)

Event Time Altitude Azimuth Distance (km) Brightness Sun altitude
Rises 10:44:51 0° 263° (W) 4,682 11.4 46.7°
Reaches altitude 10° 10:48:49 10° 248° (WSW) 3,697 11.1 46.9°
Maximum altitude 10:55:07 21° 205° (SSW) 2,936 11.3 47.1°
Drops below altitude 10° 11:01:28 10° 161° (SSE) 3,725 12.0 47.4°
Sets 11:05:30 0° 147° (SSE) 4,727 12.2 47.5°
